Showing default

PICO-01A003, 58326

Orbit data source: Space-Track

PICO-01A003, 58326 is a payload satellite owned by Apogeo Space (IT) in SSO that was launched on Sat, 11 Nov 2023 UTC via an FALCON 9 launch vehicle from the Air Force Western Test Range (AFWTR). Payload-class satellites include a variety of spacecraft equipped with specific instruments for various scientific and technological missions. These include communications satellites like Starlink; space stations such as the ISS; scientific satellites like the Hubble; Earth observation satellites from companies like Planet Labs, Umbra, and HawkEye 360; GPS; miniature CubeSats for education and research; and military/defense satellites.

Loading next visibility...
Identifier
58326, 2023-174BY
Orbit
SSO
Country
Flag of ITIT
Related business
Manufacturer
Apogeo Space
Mission
Operational Commercial Communications
Bus & Motor
CUBESAT 0.3U, Unknown motor
Mass
0.5 kg wet, 0.5 kg dry
Launch date (UTC)
2023-11-11 (2 years ago)
Launch vehicle
FALCON 9
Launch site
Air Force Western Test Range (AFWTR)
Object type
Payload
Rocket body
Debris
Shape & HBR
Box, 0.1 m
Radar Cross Section
0.008 m², Small (<0.1 m²)

Expand to show TLE details & history
Last TLE update: 7 hours ago

TLE from 7 hours ago
0 PICO-01A003
1 58326U 23174BY  25300.28373524  .00017155  00000-0  49696-3 0  9991
2 58326  97.4019  18.0048 0006034 281.0719  78.9845 15.35618914109541
Epoch: 2025-10-27T06:48Z
TLE epoch observation values (Epoch: 2025-10-27T06:48:34.724Z)
Latitude
-0.00013°
Longitude
-120.02766°
Altitude
461.408 km
Speed
7.636 km/s
True Right ascension
01h 12m 01s
True Declination
0° 00' 00"
Sunlit
Object was in full shadow at epoch
Visualization orbit readout
Latitude
Unknown
Longitude
Unknown
Altitude
Unknown
Speed
Unknown
Apparent Right ascension
Unknown
Apparent Declination
Unknown
Sunlit
N/A
Visualization observer readout
Local Sidereal Time
08:53:02
Azimuth
Unknown
Elevation
Unknown
Doppler factor
Unknown
Orbital elements
Apogee altitude
460.151 km
Perigee altitude
451.904 km
Semi-major axis
6,834.165 km
Eccentricity
0.0006
Inclination
97.4019°
RAAN
18.0048°
Arg. of periapsis
281.0719°
True anomaly
79.05238°
Mean anomaly
78.9845°
Eccentric anomaly
79.01844°
Mean motion
3.84163 °/min
Orbital period
93.71 mins
BSTAR
0.00049696
Loading maneuver chart data...
Computing Atmospheric mass density...
Loading historical data...
Loading historical data...
Loading historical data...
Loading historical data...
Loading historical data...
Loading historical data...
Loading historical data...

Documentation

Showing up to 5 results
|